Time,TemperatureF,DewpointF,PressureIn,WindDirection,WindDirectionDegrees,WindSpeedMPH,WindSpeedGustMPH,Humidity,HourlyPrecipIn,Conditions,Clouds,dailyrainin,SoftwareType,DateUTC
2013-07-22 00:00:00,64.7,64.7,29.83,WSW,258,0.0,0.0,100,0.06,,,0.00,Wunderground v.1.15,2013-07-22 04:00:00,
2013-07-22 00:01:00,64.7,64.7,29.83,WSW,258,0.0,13.0,100,0.06,,,0.00,Wunderground v.1.15,2013-07-22 04:01:00,
2013-07-22 00:02:00,64.7,64.7,29.83,WSW,258,0.0,13.0,100,0.05,,,0.00,Wunderground v.1.15,2013-07-22 04:02:00,
2013-07-22 00:04:00,64.7,64.7,29.83,WSW,258,0.0,13.0,100,0.05,,,0.00,Wunderground v.1.15,2013-07-22 04:04:00,
2013-07-22 00:09:00,64.7,64.7,29.83,WSW,258,0.0,13.0,100,0.00,,,0.00,Wunderground v.1.15,2013-07-22 04:09:00,
2013-07-22 00:11:00,64.7,64.7,29.83,WSW,258,0.0,0.0,100,0.00,,,0.00,Wunderground v.1.15,2013-07-22 04:11:00,
2013-07-22 00:16:00,64.7,64.7,29.82,WSW,258,0.0,0.0,100,0.00,,,0.00,Wunderground v.1.15,2013-07-22 04:16:00,
2013-07-22 00:22:00,64.8,64.8,29.82,WSW,258,0.0,0.0,100,0.00,,,0.00,Wunderground v.1.15,2013-07-22 04:22:00,
2013-07-22 00:27:00,64.8,64.8,29.82,WSW,258,0.0,3.0,100,0.00,,,0.00,Wunderground v.1.15,2013-07-22 04:27:00,
2013-07-22 00:34:00,64.8,64.8,29.82,WSW,258,1.0,2.0,100,0.00,,,0.00,Wunderground v.1.15,2013-07-22 04:34:00,
2013-07-22 00:39:00,64.7,64.7,29.82,WSW,258,1.0,2.0,100,0.00,,,0.00,Wunderground v.1.15,2013-07-22 04:39:00,
2013-07-22 00:44:00,69.8,69.8,29.82,NE,45,0.0,1.0,100,0.00,,,0.00,Wunderground v.1.15,2013-07-22 04:44:00,
2013-07-22 00:49:00,69.1,69.1,29.81,NE,56,0.0,2.0,100,0.00,,,0.00,Wunderground v.1.15,2013-07-22 04:49:00,
2013-07-22 00:55:00,68.9,68.9,29.81,NE,56,0.0,1.0,100,0.00,,,0.00,Wunderground v.1.15,2013-07-22 04:55:00,
2013-07-22 01:00:00,68.9,68.9,29.82,NE,56,0.0,2.0,100,0.00,,,0.00,Wunderground v.1.15,2013-07-22 05:00:00,
2013-07-22 01:06:00,68.8,68.8,29.82,ENE,58,0.0,6.0,100,0.00,,,0.00,Wunderground v.1.15,2013-07-22 05:06:00,
2013-07-22 01:12:00,68.1,68.1,29.82,East,79,1.0,1.0,100,0.00,,,0.00,Wunderground v.1.15,2013-07-22 05:12:00,
2013-07-22 01:17:00,68.1,68.1,29.81,ENE,75,1.0,1.0,100,0.00,,,0.00,Wunderground v.1.15,2013-07-22 05:17:00,
2013-07-22 01:23:00,68.1,68.1,29.81,ENE,75,1.0,1.0,100,0.00,,,0.00,Wunderground v.1.15,2013-07-22 05:23:00,
2013-07-22 01:29:00,68.1,68.1,29.81,East,79,1.0,2.0,100,0.00,,,0.00,Wunderground v.1.15,2013-07-22 05:29:00,
2013-07-22 01:34:00,68.1,68.1,29.80,ENE,76,1.0,2.0,100,0.00,,,0.00,Wunderground v.1.15,2013-07-22 05:34:00,
2013-07-22 01:39:00,68.1,68.1,29.80,ENE,76,1.0,2.0,100,0.00,,,0.00,Wunderground v.1.15,2013-07-22 05:39:00,
2013-07-22 01:44:00,68.3,68.3,29.80,ENE,78,1.0,1.0,100,0.00,,,0.00,Wunderground v.1.15,2013-07-22 05:44:00,
2013-07-22 01:50:00,68.1,68.1,29.80,East,80,0.0,5.0,100,0.00,,,0.00,Wunderground v.1.15,2013-07-22 05:50:00,
2013-07-22 01:55:00,68.1,68.1,29.80,East,80,0.0,0.0,100,0.00,,,0.00,Wunderground v.1.15,2013-07-22 05:55:00,
2013-07-22 02:01:00,68.1,68.1,29.80,East,79,0.0,2.0,100,0.00,,,0.00,Wunderground v.1.15,2013-07-22 06:01:00,
2013-07-22 02:06:00,68.1,68.1,29.80,ENE,75,0.0,4.0,100,0.00,,,0.00,Wunderground v.1.15,2013-07-22 06:06:00,
2013-07-22 02:12:00,68.3,68.3,29.80,ENE,76,0.0,1.0,100,0.00,,,0.00,Wunderground v.1.15,2013-07-22 06:12:00,
2013-07-22 02:18:00,68.3,68.3,29.80,ENE,76,0.0,1.0,100,0.00,,,0.00,Wunderground v.1.15,2013-07-22 06:18:00,
2013-07-22 02:23:00,68.3,68.3,29.80,ENE,76,0.0,0.0,100,0.00,,,0.00,Wunderground v.1.15,2013-07-22 06:23:00,
2013-07-22 02:29:00,68.3,68.3,29.80,ENE,76,0.0,2.0,100,0.00,,,0.00,Wunderground v.1.15,2013-07-22 06:29:00,
2013-07-22 02:34:00,68.3,68.3,29.79,ENE,76,0.0,0.0,100,0.00,,,0.00,Wunderground v.1.15,2013-07-22 06:34:00,
2013-07-22 02:40:00,68.3,68.3,29.79,ENE,75,0.0,2.0,100,0.00,,,0.00,Wunderground v.1.15,2013-07-22 06:40:00,
2013-07-22 02:45:00,68.3,68.3,29.79,ENE,78,1.0,2.0,100,0.00,,,0.00,Wunderground v.1.15,2013-07-22 06:45:00,
2013-07-22 02:51:00,68.4,68.4,29.79,ENE,78,1.0,1.0,100,0.00,,,0.00,Wunderground v.1.15,2013-07-22 06:51:00,
2013-07-22 02:56:00,68.3,68.3,29.79,East,83,0.0,2.0,100,0.00,,,0.00,Wunderground v.1.15,2013-07-22 06:56:00,
2013-07-22 03:02:00,68.3,68.3,29.78,East,83,0.0,5.0,100,0.00,,,0.00,Wunderground v.1.15,2013-07-22 07:02:00,
2013-07-22 03:08:00,68.4,68.4,29.78,East,82,0.0,5.0,100,0.00,,,0.00,Wunderground v.1.15,2013-07-22 07:08:00,
2013-07-22 03:13:00,68.4,68.4,29.78,East,80,0.0,0.0,100,0.00,,,0.00,Wunderground v.1.15,2013-07-22 07:13:00,
2013-07-22 03:19:00,68.4,68.4,29.78,East,80,0.0,1.0,100,0.00,,,0.00,Wunderground v.1.15,2013-07-22 07:19:00,
2013-07-22 03:24:00,68.4,68.4,29.78,East,80,0.0,0.0,100,0.00,,,0.00,Wunderground v.1.15,2013-07-22 07:24:00,
2013-07-22 03:30:00,68.6,68.6,29.78,East,80,0.0,0.0,100,0.00,,,0.00,Wunderground v.1.15,2013-07-22 07:30:00,
2013-07-22 03:36:00,68.6,68.6,29.78,East,80,0.0,0.0,100,0.00,,,0.00,Wunderground v.1.15,2013-07-22 07:36:00,
2013-07-22 03:41:00,68.6,68.6,29.78,East,80,0.0,0.0,100,0.00,,,0.00,Wunderground v.1.15,2013-07-22 07:41:00,
2013-07-22 03:47:00,68.6,68.6,29.78,East,80,0.0,0.0,100,0.00,,,0.00,Wunderground v.1.15,2013-07-22 07:47:00,
2013-07-22 03:52:00,68.6,68.6,29.78,East,80,0.0,0.0,100,0.00,,,0.00,Wunderground v.1.15,2013-07-22 07:52:00,
2013-07-22 03:58:00,68.8,68.8,29.78,East,80,0.0,0.0,100,0.00,,,0.00,Wunderground v.1.15,2013-07-22 07:58:00,
2013-07-22 04:03:00,68.8,68.8,29.77,East,80,0.0,5.0,100,0.00,,,0.00,Wunderground v.1.15,2013-07-22 08:03:00,
2013-07-22 04:09:00,68.8,68.8,29.77,East,80,0.0,5.0,100,0.00,,,0.00,Wunderground v.1.15,2013-07-22 08:09:00,
2013-07-22 04:14:00,68.8,68.8,29.77,East,80,0.0,0.0,100,0.00,,,0.00,Wunderground v.1.15,2013-07-22 08:14:00,
2013-07-22 04:20:00,68.8,68.8,29.78,East,80,0.0,3.0,100,0.00,,,0.00,Wunderground v.1.15,2013-07-22 08:20:00,
2013-07-22 04:25:00,68.8,68.8,29.78,East,80,0.0,0.0,100,0.00,,,0.00,Wunderground v.1.15,2013-07-22 08:25:00,
2013-07-22 04:31:00,68.8,68.8,29.77,East,80,0.0,0.0,100,0.00,,,0.00,Wunderground v.1.15,2013-07-22 08:31:00,
2013-07-22 04:36:00,68.9,68.9,29.77,ENE,72,0.0,4.0,100,0.00,,,0.00,Wunderground v.1.15,2013-07-22 08:36:00,
2013-07-22 04:42:00,68.9,68.9,29.77,ENE,73,1.0,1.0,100,0.00,,,0.00,Wunderground v.1.15,2013-07-22 08:42:00,
2013-07-22 04:48:00,69.1,69.1,29.78,ENE,68,1.0,4.0,100,0.00,,,0.00,Wunderground v.1.15,2013-07-22 08:48:00,
2013-07-22 04:53:00,69.3,69.3,29.78,ENE,68,2.0,2.0,100,0.00,,,0.00,Wunderground v.1.15,2013-07-22 08:53:00,
2013-07-22 04:59:00,69.3,69.3,29.78,ENE,75,1.0,2.0,100,0.00,,,0.00,Wunderground v.1.15,2013-07-22 08:59:00,
2013-07-22 05:04:00,69.3,69.3,29.77,ENE,76,2.0,3.0,100,0.00,,,0.00,Wunderground v.1.15,2013-07-22 09:04:00,
2013-07-22 05:10:00,69.3,69.3,29.77,East,80,2.0,3.0,100,0.00,,,0.00,Wunderground v.1.15,2013-07-22 09:10:00,
2013-07-22 05:16:00,69.4,69.4,29.76,ENE,78,1.0,2.0,100,0.00,,,0.00,Wunderground v.1.15,2013-07-22 09:16:00,
2013-07-22 05:21:00,69.4,69.4,29.76,ENE,76,1.0,1.0,100,0.00,,,0.00,Wunderground v.1.15,2013-07-22 09:21:00,
2013-07-22 05:27:00,69.8,69.8,29.76,ENE,71,1.0,3.0,100,0.00,,,0.00,Wunderground v.1.15,2013-07-22 09:27:00,
2013-07-22 05:32:00,69.8,69.8,29.75,ENE,72,1.0,2.0,100,0.00,,,0.00,Wunderground v.1.15,2013-07-22 09:32:00,
2013-07-22 05:37:00,69.8,69.8,29.75,ENE,72,1.0,2.0,100,0.00,,,0.00,Wunderground v.1.15,2013-07-22 09:37:00,
2013-07-22 05:43:00,69.8,69.8,29.75,ENE,72,0.0,0.0,100,0.00,,,0.00,Wunderground v.1.15,2013-07-22 09:43:00,
2013-07-22 05:49:00,69.8,69.8,29.76,ENE,72,0.0,0.0,100,0.00,,,0.00,Wunderground v.1.15,2013-07-22 09:49:00,
2013-07-22 05:54:00,69.8,69.8,29.76,ENE,72,0.0,0.0,100,0.00,,,0.00,Wunderground v.1.15,2013-07-22 09:54:00,
2013-07-22 05:59:00,69.8,69.8,29.75,ENE,72,0.0,0.0,100,0.00,,,0.00,Wunderground v.1.15,2013-07-22 09:59:00,
2013-07-22 06:05:00,69.8,69.8,29.75,ENE,72,0.0,5.0,100,0.00,,,0.00,Wunderground v.1.15,2013-07-22 10:05:00,
2013-07-22 06:10:00,69.8,69.8,29.75,ENE,72,0.0,5.0,100,0.00,,,0.00,Wunderground v.1.15,2013-07-22 10:10:00,
2013-07-22 06:15:00,69.6,69.6,29.75,ENE,72,0.0,0.0,100,0.00,,,0.00,Wunderground v.1.15,2013-07-22 10:15:00,
2013-07-22 06:21:00,69.6,69.6,29.75,ENE,72,0.0,0.0,100,0.00,,,0.00,Wunderground v.1.15,2013-07-22 10:21:00,
2013-07-22 06:26:00,69.8,69.8,29.75,ENE,72,1.0,3.0,100,0.00,,,0.00,Wunderground v.1.15,2013-07-22 10:26:00,
2013-07-22 06:32:00,69.8,69.8,29.76,ENE,72,1.0,1.0,100,0.00,,,0.00,Wunderground v.1.15,2013-07-22 10:32:00,
2013-07-22 06:37:00,69.8,69.8,29.76,ENE,72,0.0,1.0,100,0.00,,,0.00,Wunderground v.1.15,2013-07-22 10:37:00,
2013-07-22 06:43:00,69.8,69.8,29.76,ENE,72,0.0,2.0,100,0.00,,,0.00,Wunderground v.1.15,2013-07-22 10:43:00,
2013-07-22 06:48:00,69.8,69.8,29.77,ENE,72,0.0,2.0,100,0.00,,,0.00,Wunderground v.1.15,2013-07-22 10:48:00,
2013-07-22 06:53:00,69.8,69.8,29.77,ENE,72,0.0,0.0,100,0.00,,,0.00,Wunderground v.1.15,2013-07-22 10:53:00,
2013-07-22 06:59:00,69.8,69.8,29.77,ENE,72,0.0,0.0,100,0.00,,,0.00,Wunderground v.1.15,2013-07-22 10:59:00,
2013-07-22 07:04:00,69.8,69.8,29.77,ENE,72,0.0,3.0,100,0.00,,,0.00,Wunderground v.1.15,2013-07-22 11:04:00,
2013-07-22 07:10:00,69.8,69.8,29.77,ENE,72,0.0,0.0,100,0.00,,,0.00,Wunderground v.1.15,2013-07-22 11:10:00,
2013-07-22 07:16:00,69.8,69.8,29.77,ENE,72,0.0,2.0,100,0.00,,,0.00,Wunderground v.1.15,2013-07-22 11:16:00,
2013-07-22 07:21:00,69.8,69.8,29.77,ENE,72,0.0,2.0,100,0.00,,,0.00,Wunderground v.1.15,2013-07-22 11:21:00,
2013-07-22 07:27:00,69.8,69.8,29.77,ENE,75,1.0,5.0,100,0.00,,,0.00,Wunderground v.1.15,2013-07-22 11:27:00,
2013-07-22 07:32:00,69.8,69.8,29.77,ENE,73,1.0,2.0,100,0.00,,,0.00,Wunderground v.1.15,2013-07-22 11:32:00,
2013-07-22 07:37:00,69.8,69.8,29.77,East,82,2.0,3.0,100,0.00,,,0.00,Wunderground v.1.15,2013-07-22 11:37:00,
2013-07-22 07:44:00,69.9,69.9,29.77,East,80,2.0,2.0,100,0.00,,,0.00,Wunderground v.1.15,2013-07-22 11:44:00,
2013-07-22 07:49:00,69.9,69.9,29.77,East,79,1.0,2.0,100,0.00,,,0.00,Wunderground v.1.15,2013-07-22 11:49:00,
2013-07-22 07:54:00,69.9,69.9,29.77,ENE,76,1.0,2.0,100,0.00,,,0.00,Wunderground v.1.15,2013-07-22 11:54:00,
2013-07-22 08:00:00,70.1,70.1,29.76,ENE,72,1.0,1.0,100,0.00,,,0.00,Wunderground v.1.15,2013-07-22 12:00:00,
2013-07-22 08:05:00,70.3,70.3,29.76,ENE,64,0.0,2.0,100,0.00,,,0.00,Wunderground v.1.15,2013-07-22 12:05:00,
2013-07-22 08:11:00,70.4,70.4,29.76,ENE,62,0.0,0.0,100,0.00,,,0.00,Wunderground v.1.15,2013-07-22 12:11:00,
2013-07-22 08:16:00,70.6,70.6,29.77,ENE,62,0.0,0.0,100,0.00,,,0.00,Wunderground v.1.15,2013-07-22 12:16:00,
2013-07-22 08:22:00,71.5,71.5,29.77,North,10,0.0,0.0,100,0.00,,,0.00,Wunderground v.1.15,2013-07-22 12:22:00,
2013-07-22 08:27:00,71.5,71.5,29.77,NNE,13,0.0,0.0,100,0.00,,,0.00,Wunderground v.1.15,2013-07-22 12:27:00,
2013-07-22 08:33:00,71.8,71.8,29.77,NNE,13,0.0,0.0,100,0.00,,,0.00,Wunderground v.1.15,2013-07-22 12:33:00,
2013-07-22 08:39:00,71.5,71.5,29.77,NNE,18,1.0,3.0,100,0.00,,,0.00,Wunderground v.1.15,2013-07-22 12:39:00,
2013-07-22 08:44:00,71.6,71.6,29.77,NNE,14,1.0,1.0,100,0.00,,,0.00,Wunderground v.1.15,2013-07-22 12:44:00,
2013-07-22 08:50:00,71.6,71.6,29.77,NNE,13,1.0,1.0,100,0.00,,,0.00,Wunderground v.1.15,2013-07-22 12:50:00,
2013-07-22 08:55:00,72.0,72.0,29.77,North,11,1.0,2.0,100,0.00,,,0.00,Wunderground v.1.15,2013-07-22 12:55:00,
2013-07-22 09:01:00,72.1,72.1,29.77,North,11,1.0,5.0,100,0.00,,,0.00,Wunderground v.1.15,2013-07-22 13:01:00,
2013-07-22 09:06:00,72.0,72.0,29.77,NNE,13,1.0,5.0,100,0.00,,,0.00,Wunderground v.1.15,2013-07-22 13:06:00,
2013-07-22 09:11:00,71.8,71.8,29.77,NNE,13,2.0,2.0,100,0.00,,,0.00,Wunderground v.1.15,2013-07-22 13:11:00,
2013-07-22 09:17:00,72.1,72.1,29.76,NNE,14,1.0,2.0,100,0.00,,,0.00,Wunderground v.1.15,2013-07-22 13:17:00,
2013-07-22 09:22:00,72.1,72.1,29.76,NNE,14,0.0,0.0,100,0.00,,,0.00,Wunderground v.1.15,2013-07-22 13:22:00,
2013-07-22 09:28:00,72.7,72.7,29.76,NNE,16,0.0,2.0,100,0.00,,,0.00,Wunderground v.1.15,2013-07-22 13:28:00,
2013-07-22 09:34:00,72.8,72.8,29.77,NNE,14,0.0,0.0,100,0.00,,,0.00,Wunderground v.1.15,2013-07-22 13:34:00,
2013-07-22 09:39:00,72.8,72.8,29.77,NNE,16,0.0,0.0,100,0.00,,,0.00,Wunderground v.1.15,2013-07-22 13:39:00,
2013-07-22 09:44:00,73.0,73.0,29.77,NNE,17,0.0,4.0,100,0.00,,,0.00,Wunderground v.1.15,2013-07-22 13:44:00,
2013-07-22 09:50:00,73.0,73.0,29.77,NNE,14,1.0,3.0,100,0.00,,,0.00,Wunderground v.1.15,2013-07-22 13:50:00,
2013-07-22 09:56:00,73.0,73.0,29.77,NNE,14,1.0,3.0,100,0.00,,,0.00,Wunderground v.1.15,2013-07-22 13:56:00,
2013-07-22 10:01:00,73.2,73.2,29.77,NNE,14,1.0,6.0,100,0.00,,,0.00,Wunderground v.1.15,2013-07-22 14:01:00,
2013-07-22 10:07:00,73.3,73.3,29.77,NNE,16,0.0,6.0,100,0.00,,,0.00,Wunderground v.1.15,2013-07-22 14:07:00,
2013-07-22 10:12:00,73.3,73.3,29.77,NNE,18,0.0,0.0,100,0.00,,,0.00,Wunderground v.1.15,2013-07-22 14:12:00,
2013-07-22 10:17:00,73.3,73.3,29.78,NNE,16,0.0,0.0,100,0.00,,,0.00,Wunderground v.1.15,2013-07-22 14:17:00,
2013-07-22 10:23:00,73.3,73.3,29.78,NNE,17,0.0,0.0,100,0.00,,,0.00,Wunderground v.1.15,2013-07-22 14:23:00,
2013-07-22 10:29:00,73.5,73.5,29.78,NNE,14,0.0,0.0,100,0.00,,,0.00,Wunderground v.1.15,2013-07-22 14:29:00,
2013-07-22 10:34:00,73.5,73.5,29.78,NNE,18,0.0,2.0,100,0.00,,,0.00,Wunderground v.1.15,2013-07-22 14:34:00,
2013-07-22 10:40:00,73.5,73.5,29.78,NNE,20,0.0,0.0,100,0.00,,,0.00,Wunderground v.1.15,2013-07-22 14:40:00,
2013-07-22 10:46:00,73.9,73.9,29.77,NNE,18,0.0,0.0,100,0.00,,,0.00,Wunderground v.1.15,2013-07-22 14:46:00,
2013-07-22 10:51:00,73.9,73.9,29.77,NNE,18,0.0,0.0,100,0.00,,,0.00,Wunderground v.1.15,2013-07-22 14:51:00,
2013-07-22 10:57:00,74.2,74.2,29.77,NNE,16,0.0,3.0,100,0.00,,,0.00,Wunderground v.1.15,2013-07-22 14:57:00,
2013-07-22 11:02:00,74.6,74.6,29.77,NNE,17,1.0,5.0,100,0.00,,,0.00,Wunderground v.1.15,2013-07-22 15:02:00,
2013-07-22 11:09:00,75.1,75.1,29.77,NNE,20,2.0,5.0,100,0.00,,,0.00,Wunderground v.1.15,2013-07-22 15:09:00,
2013-07-22 11:14:00,75.4,75.4,29.77,NNE,23,2.0,5.0,100,0.00,,,0.00,Wunderground v.1.15,2013-07-22 15:14:00,
2013-07-22 11:19:00,75.8,75.8,29.77,NNE,20,2.0,5.0,100,0.00,,,0.00,Wunderground v.1.15,2013-07-22 15:19:00,
2013-07-22 11:25:00,76.0,76.0,29.77,NNE,21,2.0,5.0,100,0.00,,,0.00,Wunderground v.1.15,2013-07-22 15:25:00,
2013-07-22 11:31:00,76.1,76.1,29.77,NNE,21,1.0,5.0,100,0.00,,,0.00,Wunderground v.1.15,2013-07-22 15:31:00,
2013-07-22 11:36:00,76.3,76.3,29.77,NNE,25,2.0,5.0,100,0.00,,,0.00,Wunderground v.1.15,2013-07-22 15:36:00,
2013-07-22 11:41:00,76.5,76.5,29.77,NNE,25,2.0,5.0,100,0.00,,,0.00,Wunderground v.1.15,2013-07-22 15:41:00,
2013-07-22 11:47:00,76.5,76.5,29.76,NNE,23,0.0,5.0,100,0.00,,,0.00,Wunderground v.1.15,2013-07-22 15:47:00,
2013-07-22 11:52:00,76.7,76.7,29.76,NNE,21,1.0,5.0,100,0.00,,,0.00,Wunderground v.1.15,2013-07-22 15:52:00,
2013-07-22 11:57:00,76.8,76.8,29.76,NNE,23,2.0,5.0,100,0.00,,,0.00,Wunderground v.1.15,2013-07-22 15:57:00,
2013-07-22 12:04:00,77.4,77.4,29.76,NNE,17,1.0,6.0,100,0.00,,,0.00,Wunderground v.1.15,2013-07-22 16:04:00,
2013-07-22 12:09:00,77.6,76.7,29.76,ENE,64,1.0,8.0,97,0.00,,,0.00,Wunderground v.1.15,2013-07-22 16:09:00,
2013-07-22 12:14:00,77.7,77.7,29.76,ENE,64,2.0,3.0,100,0.00,,,0.00,Wunderground v.1.15,2013-07-22 16:14:00,
2013-07-22 12:20:00,77.9,77.9,29.76,ENE,66,1.0,1.0,100,0.00,,,0.00,Wunderground v.1.15,2013-07-22 16:20:00,
2013-07-22 12:25:00,77.9,77.9,29.76,ENE,59,0.0,2.0,100,0.00,,,0.00,Wunderground v.1.15,2013-07-22 16:25:00,
2013-07-22 12:31:00,78.1,78.1,29.75,ENE,68,1.0,1.0,100,0.00,,,0.00,Wunderground v.1.15,2013-07-22 16:31:00,
2013-07-22 12:36:00,78.1,78.1,29.75,ENE,69,1.0,3.0,100,0.00,,,0.00,Wunderground v.1.15,2013-07-22 16:36:00,
2013-07-22 12:41:00,78.3,78.3,29.75,ENE,69,2.0,5.0,100,0.00,,,0.00,Wunderground v.1.15,2013-07-22 16:41:00,
2013-07-22 12:47:00,78.3,77.7,29.75,ENE,78,3.0,5.0,98,0.00,,,0.00,Wunderground v.1.15,2013-07-22 16:47:00,
2013-07-22 12:52:00,78.5,78.5,29.75,ENE,78,2.0,2.0,100,0.00,,,0.00,Wunderground v.1.15,2013-07-22 16:52:00,
2013-07-22 12:57:00,78.8,78.8,29.75,ENE,72,1.0,5.0,100,0.00,,,0.00,Wunderground v.1.15,2013-07-22 16:57:00,
2013-07-22 13:04:00,78.8,78.5,29.75,ENE,73,2.0,8.0,99,0.00,,,0.00,Wunderground v.1.15,2013-07-22 17:04:00,
2013-07-22 13:09:00,78.6,78.6,29.75,ENE,78,2.0,8.0,100,0.00,,,0.00,Wunderground v.1.15,2013-07-22 17:09:00,
2013-07-22 13:14:00,78.8,78.8,29.75,ENE,78,1.0,2.0,100,0.00,,,0.00,Wunderground v.1.15,2013-07-22 17:14:00,
2013-07-22 13:19:00,79.0,79.0,29.75,ENE,78,0.0,2.0,100,0.00,,,0.00,Wunderground v.1.15,2013-07-22 17:19:00,
2013-07-22 13:24:00,79.2,76.7,29.75,ENE,78,1.0,5.0,92,0.00,,,0.00,Wunderground v.1.15,2013-07-22 17:24:00,
2013-07-22 13:29:00,79.2,75.0,29.75,ENE,73,2.0,5.0,87,0.00,,,0.00,Wunderground v.1.15,2013-07-22 17:29:00,
2013-07-22 13:34:00,79.4,77.8,29.75,ENE,73,1.0,2.0,95,0.00,,,0.00,Wunderground v.1.15,2013-07-22 17:34:00,
2013-07-22 13:40:00,79.6,75.0,29.75,ESE,113,0.0,1.0,86,0.00,,,0.00,Wunderground v.1.15,2013-07-22 17:40:00,
2013-07-22 13:45:00,79.6,77.1,29.74,ESE,110,0.0,1.0,92,0.00,,,0.00,Wunderground v.1.15,2013-07-22 17:45:00,
2013-07-22 13:51:00,79.9,74.6,29.74,SE,124,0.0,0.0,84,0.00,,,0.00,Wunderground v.1.15,2013-07-22 17:51:00,
2013-07-22 13:56:00,79.9,76.0,29.74,SE,130,0.0,0.0,88,0.00,,,0.00,Wunderground v.1.15,2013-07-22 17:56:00,
2013-07-22 14:01:00,80.1,72.6,29.74,SE,130,0.0,7.0,78,0.00,,,0.00,Wunderground v.1.15,2013-07-22 18:01:00,
2013-07-22 14:07:00,80.3,73.6,29.74,ENE,73,1.0,7.0,80,0.00,,,0.00,Wunderground v.1.15,2013-07-22 18:07:00,
2013-07-22 14:14:00,80.5,74.9,29.74,ENE,75,2.0,2.0,83,0.00,,,0.00,Wunderground v.1.15,2013-07-22 18:14:00,
2013-07-22 14:19:00,80.7,76.5,29.74,ENE,75,1.0,2.0,87,0.00,,,0.00,Wunderground v.1.15,2013-07-22 18:19:00,
2013-07-22 14:24:00,80.5,74.5,29.74,ENE,75,0.0,2.0,82,0.00,,,0.00,Wunderground v.1.15,2013-07-22 18:24:00,
2013-07-22 14:30:00,80.7,76.1,29.74,ENE,75,0.0,0.0,86,0.00,,,0.00,Wunderground v.1.15,2013-07-22 18:30:00,
2013-07-22 14:36:00,80.3,76.8,29.74,ENE,75,0.0,0.0,89,0.00,,,0.00,Wunderground v.1.15,2013-07-22 18:36:00,
2013-07-22 14:42:00,79.9,76.7,29.74,ENE,76,0.0,1.0,90,0.00,,,0.00,Wunderground v.1.15,2013-07-22 18:42:00,
2013-07-22 14:49:00,79.6,79.0,29.74,SSE,155,0.0,2.0,98,0.00,,,0.00,Wunderground v.1.15,2013-07-22 18:49:00,
2013-07-22 14:54:00,79.0,79.0,29.74,West,277,1.0,3.0,100,0.00,,,0.00,Wunderground v.1.15,2013-07-22 18:54:00,
2013-07-22 14:59:00,78.5,78.5,29.73,West,275,2.0,4.0,100,0.00,,,0.00,Wunderground v.1.15,2013-07-22 18:59:00,
2013-07-22 15:06:00,78.6,78.6,29.73,West,275,1.0,3.0,100,0.00,,,0.00,Wunderground v.1.15,2013-07-22 19:06:00,
2013-07-22 15:12:00,79.2,79.2,29.73,West,275,0.0,1.0,100,0.00,,,0.00,Wunderground v.1.15,2013-07-22 19:12:00,
2013-07-22 15:17:00,79.9,79.9,29.73,West,275,0.0,1.0,100,0.00,,,0.00,Wunderground v.1.15,2013-07-22 19:17:00,
2013-07-22 15:24:00,80.1,78.5,29.73,West,277,1.0,2.0,95,0.00,,,0.00,Wunderground v.1.15,2013-07-22 19:24:00,
2013-07-22 15:29:00,80.3,80.3,29.73,West,277,1.0,5.0,100,0.00,,,0.00,Wunderground v.1.15,2013-07-22 19:29:00,
2013-07-22 15:35:00,80.1,79.2,29.73,West,277,1.0,2.0,97,0.00,,,0.00,Wunderground v.1.15,2013-07-22 19:35:00,
2013-07-22 15:41:00,79.8,79.8,29.73,West,277,1.0,3.0,100,0.00,,,0.00,Wunderground v.1.15,2013-07-22 19:41:00,
2013-07-22 15:47:00,79.6,79.6,29.72,West,277,1.0,6.0,100,0.00,,,0.00,Wunderground v.1.15,2013-07-22 19:47:00,
2013-07-22 15:52:00,79.6,79.6,29.72,West,277,1.0,2.0,100,0.00,,,0.00,Wunderground v.1.15,2013-07-22 19:52:00,
2013-07-22 15:58:00,80.1,80.1,29.72,West,277,0.0,2.0,100,0.00,,,0.00,Wunderground v.1.15,2013-07-22 19:58:00,
2013-07-22 16:04:00,80.7,80.1,29.72,West,277,1.0,7.0,98,0.00,,,0.00,Wunderground v.1.15,2013-07-22 20:04:00,
2013-07-22 16:09:00,81.1,80.2,29.72,West,277,1.0,7.0,97,0.00,,,0.00,Wunderground v.1.15,2013-07-22 20:09:00,
2013-07-22 16:14:00,80.7,79.1,29.72,West,277,1.0,2.0,95,0.00,,,0.00,Wunderground v.1.15,2013-07-22 20:14:00,
2013-07-22 16:18:00,80.5,79.9,29.71,West,277,1.0,2.0,98,0.00,,,0.00,Wunderground v.1.15,2013-07-22 20:18:00,
2013-07-22 16:19:00,80.5,80.5,29.71,West,277,1.0,2.0,100,0.00,,,0.00,Wunderground v.1.15,2013-07-22 20:19:00,
2013-07-22 16:22:00,80.7,80.7,29.71,West,277,0.0,1.0,100,0.00,,,0.00,Wunderground v.1.15,2013-07-22 20:22:00,
2013-07-22 16:27:00,80.5,79.6,29.71,West,277,0.0,3.0,97,0.00,,,0.00,Wunderground v.1.15,2013-07-22 20:27:00,
2013-07-22 16:33:00,80.5,78.9,29.70,West,277,1.0,1.0,95,0.00,,,0.00,Wunderground v.1.15,2013-07-22 20:33:00,
2013-07-22 16:39:00,80.7,79.1,29.70,West,277,1.0,1.0,95,0.00,,,0.00,Wunderground v.1.15,2013-07-22 20:39:00,
2013-07-22 16:44:00,80.7,78.5,29.70,West,277,1.0,2.0,93,0.00,,,0.00,Wunderground v.1.15,2013-07-22 20:44:00,
2013-07-22 16:48:00,80.3,80.3,29.70,West,277,1.0,2.0,100,0.00,,,0.00,Wunderground v.1.15,2013-07-22 20:48:00,
2013-07-22 16:54:00,80.1,79.8,29.70,West,275,1.0,1.0,99,0.00,,,0.00,Wunderground v.1.15,2013-07-22 20:54:00,
2013-07-22 16:59:00,80.5,80.2,29.70,West,272,0.0,1.0,99,0.00,,,0.00,Wunderground v.1.15,2013-07-22 20:59:00,
2013-07-22 17:04:00,80.3,79.1,29.70,West,271,1.0,7.0,96,0.00,,,0.00,Wunderground v.1.15,2013-07-22 21:04:00,
2013-07-22 17:10:00,80.9,80.0,29.70,West,275,1.0,7.0,97,0.00,,,0.00,Wunderground v.1.15,2013-07-22 21:10:00,
2013-07-22 17:16:00,81.1,80.5,29.70,West,275,0.0,2.0,98,0.00,,,0.00,Wunderground v.1.15,2013-07-22 21:16:00,
2013-07-22 17:21:00,80.7,78.5,29.70,West,275,0.0,0.0,93,0.00,,,0.00,Wunderground v.1.15,2013-07-22 21:21:00,
2013-07-22 17:26:00,80.3,79.1,29.70,West,275,1.0,2.0,96,0.00,,,0.00,Wunderground v.1.15,2013-07-22 21:26:00,
2013-07-22 17:32:00,80.3,79.7,29.70,West,275,1.0,1.0,98,0.00,,,0.00,Wunderground v.1.15,2013-07-22 21:32:00,
2013-07-22 17:37:00,80.5,80.2,29.70,West,275,1.0,1.0,99,0.00,,,0.00,Wunderground v.1.15,2013-07-22 21:37:00,
2013-07-22 17:43:00,80.9,79.3,29.70,West,275,0.0,0.0,95,0.00,,,0.00,Wunderground v.1.15,2013-07-22 21:43:00,
2013-07-22 17:48:00,80.9,79.0,29.69,West,274,0.0,5.0,94,0.00,,,0.00,Wunderground v.1.15,2013-07-22 21:48:00,
2013-07-22 17:54:00,80.7,78.5,29.69,West,274,1.0,1.0,93,0.00,,,0.00,Wunderground v.1.15,2013-07-22 21:54:00,
2013-07-22 17:59:00,80.7,78.8,29.69,West,275,1.0,3.0,94,0.00,,,0.00,Wunderground v.1.15,2013-07-22 21:59:00,
2013-07-22 18:05:00,80.5,79.3,29.68,West,274,1.0,7.0,96,0.00,,,0.00,Wunderground v.1.15,2013-07-22 22:05:00,
2013-07-22 18:11:00,80.7,79.8,29.68,West,274,0.0,0.0,97,0.00,,,0.00,Wunderground v.1.15,2013-07-22 22:11:00,
2013-07-22 18:16:00,80.9,79.3,29.68,West,270,0.0,1.0,95,0.00,,,0.00,Wunderground v.1.15,2013-07-22 22:16:00,
2013-07-22 18:22:00,80.9,80.0,29.68,NE,41,0.0,0.0,97,0.00,,,0.00,Wunderground v.1.15,2013-07-22 22:22:00,
2013-07-22 18:27:00,80.7,78.5,29.68,NE,41,0.0,2.0,93,0.00,,,0.00,Wunderground v.1.15,2013-07-22 22:27:00,
2013-07-22 18:33:00,80.9,79.3,29.68,NNE,31,0.0,1.0,95,0.00,,,0.00,Wunderground v.1.15,2013-07-22 22:33:00,
2013-07-22 18:38:00,81.2,78.7,29.68,NNE,32,0.0,1.0,92,0.00,,,0.00,Wunderground v.1.15,2013-07-22 22:38:00,
2013-07-22 18:43:00,81.4,79.2,29.68,NE,45,0.0,0.0,93,0.00,,,0.00,Wunderground v.1.15,2013-07-22 22:43:00,
2013-07-22 18:49:00,81.4,80.1,29.67,NE,47,0.0,1.0,96,0.00,,,0.00,Wunderground v.1.15,2013-07-22 22:49:00,
2013-07-22 18:54:00,81.2,79.6,29.67,West,275,0.0,1.0,95,0.00,,,0.00,Wunderground v.1.15,2013-07-22 22:54:00,
2013-07-22 18:59:00,81.2,79.0,29.67,West,275,0.0,1.0,93,0.00,,,0.00,Wunderground v.1.15,2013-07-22 22:59:00,
2013-07-22 19:05:00,81.4,80.8,29.66,West,275,0.0,5.0,98,0.00,,,0.00,Wunderground v.1.15,2013-07-22 23:05:00,
2013-07-22 19:11:00,81.1,79.5,29.66,West,275,0.0,0.0,95,0.00,,,0.00,Wunderground v.1.15,2013-07-22 23:11:00,
2013-07-22 19:16:00,81.1,81.1,29.66,West,275,0.0,0.0,100,0.00,,,0.00,Wunderground v.1.15,2013-07-22 23:16:00,
2013-07-22 19:22:00,81.1,80.2,29.66,West,275,0.0,0.0,97,0.00,,,0.00,Wunderground v.1.15,2013-07-22 23:22:00,
2013-07-22 19:27:00,80.9,78.7,29.66,West,275,0.0,0.0,93,0.00,,,0.00,Wunderground v.1.15,2013-07-22 23:27:00,
2013-07-22 19:33:00,80.5,80.5,29.65,West,275,0.0,0.0,100,0.00,,,0.00,Wunderground v.1.15,2013-07-22 23:33:00,
2013-07-22 19:38:00,80.1,80.1,29.65,West,275,0.0,1.0,100,0.00,,,0.00,Wunderground v.1.15,2013-07-22 23:38:00,
2013-07-22 19:44:00,79.8,79.5,29.65,West,275,0.0,0.0,99,0.00,,,0.00,Wunderground v.1.15,2013-07-22 23:44:00,
2013-07-22 19:49:00,79.6,78.4,29.65,West,275,0.0,0.0,96,0.00,,,0.00,Wunderground v.1.15,2013-07-22 23:49:00,
2013-07-22 19:55:00,79.6,77.4,29.65,West,275,0.0,0.0,93,0.00,,,0.00,Wunderground v.1.15,2013-07-22 23:55:00,
2013-07-22 20:00:00,79.8,78.2,29.66,West,275,0.0,1.0,95,0.00,,,0.00,Wunderground v.1.15,2013-07-23 00:00:00,
2013-07-22 20:06:00,79.8,79.5,29.66,West,275,0.0,3.0,99,0.00,,,0.00,Wunderground v.1.15,2013-07-23 00:06:00,
2013-07-22 20:12:00,79.8,79.8,29.66,West,275,0.0,0.0,100,0.00,,,0.00,Wunderground v.1.15,2013-07-23 00:12:00,
2013-07-22 20:17:00,79.4,79.4,29.66,West,275,0.0,0.0,100,0.00,,,0.00,Wunderground v.1.15,2013-07-23 00:17:00,
2013-07-22 20:23:00,79.2,79.2,29.66,West,275,0.0,0.0,100,0.00,,,0.00,Wunderground v.1.15,2013-07-23 00:23:00,
2013-07-22 20:28:00,79.0,79.0,29.66,West,275,0.0,0.0,100,0.00,,,0.00,Wunderground v.1.15,2013-07-23 00:28:00,
2013-07-22 20:34:00,78.8,78.8,29.66,West,275,0.0,0.0,100,0.00,,,0.00,Wunderground v.1.15,2013-07-23 00:34:00,
2013-07-22 20:39:00,78.5,78.5,29.66,West,275,0.0,0.0,100,0.00,,,0.00,Wunderground v.1.15,2013-07-23 00:39:00,
2013-07-22 20:45:00,78.3,78.3,29.67,West,275,0.0,0.0,100,0.00,,,0.00,Wunderground v.1.15,2013-07-23 00:45:00,
2013-07-22 20:50:00,78.1,78.1,29.67,West,274,0.0,0.0,100,0.00,,,0.00,Wunderground v.1.15,2013-07-23 00:50:00,
2013-07-22 20:56:00,77.7,77.7,29.67,West,274,0.0,0.0,100,0.00,,,0.00,Wunderground v.1.15,2013-07-23 00:56:00,
2013-07-22 21:01:00,77.4,77.4,29.66,West,272,0.0,0.0,100,0.00,,,0.00,Wunderground v.1.15,2013-07-23 01:01:00,
2013-07-22 21:06:00,77.0,77.0,29.66,WSW,254,0.0,2.0,100,0.00,,,0.00,Wunderground v.1.15,2013-07-23 01:06:00,
2013-07-22 21:12:00,76.8,76.8,29.66,West,275,0.0,0.0,100,0.00,,,0.00,Wunderground v.1.15,2013-07-23 01:12:00,
2013-07-22 21:17:00,76.1,76.1,29.66,West,275,0.0,0.0,100,0.00,,,0.00,Wunderground v.1.15,2013-07-23 01:17:00,
2013-07-22 21:22:00,75.6,75.6,29.66,West,275,0.0,0.0,100,0.00,,,0.00,Wunderground v.1.15,2013-07-23 01:22:00,
2013-07-22 21:28:00,75.4,75.4,29.66,West,275,0.0,0.0,100,0.00,,,0.00,Wunderground v.1.15,2013-07-23 01:28:00,
2013-07-22 21:33:00,75.1,75.1,29.66,West,275,0.0,0.0,100,0.00,,,0.00,Wunderground v.1.15,2013-07-23 01:33:00,
2013-07-22 21:39:00,74.7,74.7,29.66,West,275,0.0,0.0,100,0.00,,,0.00,Wunderground v.1.15,2013-07-23 01:39:00,
2013-07-22 21:45:00,74.4,74.4,29.66,West,275,0.0,0.0,100,0.00,,,0.00,Wunderground v.1.15,2013-07-23 01:45:00,
2013-07-22 21:51:00,74.0,74.0,29.66,West,275,0.0,0.0,100,0.00,,,0.00,Wunderground v.1.15,2013-07-23 01:51:00,
2013-07-22 21:56:00,73.9,73.9,29.66,West,275,0.0,0.0,100,0.00,,,0.00,Wunderground v.1.15,2013-07-23 01:56:00,
2013-07-22 22:02:00,73.5,73.5,29.66,West,275,0.0,0.0,100,0.00,,,0.00,Wunderground v.1.15,2013-07-23 02:02:00,
2013-07-22 22:08:00,73.2,73.2,29.66,West,275,0.0,0.0,100,0.00,,,0.00,Wunderground v.1.15,2013-07-23 02:08:00,
2013-07-22 22:13:00,73.0,73.0,29.66,West,275,0.0,0.0,100,0.00,,,0.00,Wunderground v.1.15,2013-07-23 02:13:00,
2013-07-22 22:19:00,72.8,72.8,29.67,West,275,0.0,0.0,100,0.00,,,0.00,Wunderground v.1.15,2013-07-23 02:19:00,
2013-07-22 22:25:00,72.7,72.7,29.67,West,275,0.0,0.0,100,0.00,,,0.00,Wunderground v.1.15,2013-07-23 02:25:00,
2013-07-22 22:31:00,72.5,72.5,29.67,West,275,0.0,0.0,100,0.00,,,0.00,Wunderground v.1.15,2013-07-23 02:31:00,
2013-07-22 22:36:00,72.5,72.5,29.67,West,275,0.0,0.0,100,0.00,,,0.00,Wunderground v.1.15,2013-07-23 02:36:00,
2013-07-22 22:42:00,72.5,72.5,29.67,West,275,0.0,0.0,100,0.00,,,0.00,Wunderground v.1.15,2013-07-23 02:42:00,
2013-07-22 22:47:00,72.3,72.3,29.67,West,275,0.0,0.0,100,0.00,,,0.00,Wunderground v.1.15,2013-07-23 02:47:00,
2013-07-22 22:52:00,72.3,72.3,29.67,West,275,0.0,0.0,100,0.00,,,0.00,Wunderground v.1.15,2013-07-23 02:52:00,
2013-07-22 22:58:00,72.3,72.3,29.67,West,275,0.0,0.0,100,0.00,,,0.00,Wunderground v.1.15,2013-07-23 02:58:00,
2013-07-22 23:03:00,72.3,72.3,29.68,West,275,0.0,0.0,100,0.00,,,0.00,Wunderground v.1.15,2013-07-23 03:03:00,
2013-07-22 23:09:00,72.3,72.3,29.68,West,275,0.0,0.0,100,0.00,,,0.00,Wunderground v.1.15,2013-07-23 03:09:00,
2013-07-22 23:15:00,72.3,72.3,29.68,West,275,0.0,0.0,100,0.00,,,0.00,Wunderground v.1.15,2013-07-23 03:15:00,
2013-07-22 23:20:00,72.1,72.1,29.68,West,275,0.0,0.0,100,0.00,,,0.00,Wunderground v.1.15,2013-07-23 03:20:00,
2013-07-22 23:26:00,72.1,72.1,29.68,West,275,0.0,0.0,100,0.00,,,0.00,Wunderground v.1.15,2013-07-23 03:26:00,
2013-07-22 23:31:00,72.3,72.3,29.68,West,275,0.0,0.0,100,0.00,,,0.00,Wunderground v.1.15,2013-07-23 03:31:00,
2013-07-22 23:37:00,72.5,72.5,29.68,West,275,0.0,0.0,100,0.00,,,0.00,Wunderground v.1.15,2013-07-23 03:37:00,
2013-07-22 23:42:00,72.5,72.5,29.68,West,275,0.0,0.0,100,0.00,,,0.00,Wunderground v.1.15,2013-07-23 03:42:00,
2013-07-22 23:48:00,72.7,72.7,29.67,West,275,0.0,0.0,100,0.00,,,0.00,Wunderground v.1.15,2013-07-23 03:48:00,
2013-07-22 23:54:00,72.7,72.7,29.67,West,275,0.0,0.0,100,0.00,,,0.00,Wunderground v.1.15,2013-07-23 03:54:00,
2013-07-22 23:59:00,72.7,72.7,29.67,West,275,0.0,0.0,100,0.00,,,0.00,Wunderground v.1.15,2013-07-23 03:59:00,